Find Starlink 34648

NORAD ID: 65091 Int'l Des: 2025-167 Owner: SPXS Country: US Constellation: starlink operational
LEOCIRCULAR

当前视图

正在加载3D地球...

About Starlink 34648

Starlink 34648 (NORAD 65091) is a starlink constellation satellite (v2 mini) launched Aug 4, 2025 by SPXS of US. It operates in LEO, CIRCULAR orbit with a mass of 575.00 kg.

即将过境

Passes for default location (London). Set your location on the main map for personalized predictions.

高度历史

Loading altitude history...

两行轨道根数

1 65091U 25167P 26228.63458999 .00016616 00000-0 50170-3 0 9991
2 65091 53.1604 356.9467 0001094 113.0905 247.0213 15.34407782 58064
Epoch: Aug 16, 2026 • Age: 17 hours

当前状态

高度 466.4 km
远地点 / 近地点 N/A
速度 7.64 km/s
星下点 42.57°N, 59.14°W
发射日期 Aug 4, 2025
运行时间 1 year
类型 internet

技术详情

分类 Payload
质量 575.00 kg
干质量 530.00 kg
总质量 575.00 kg
长度 0.30 m
直径 4.10 m
跨度 29.00 m
形状 Box + pan
制造商 SPXS
平台类型 Starlink V2MO
阶段状态 In Orbit
所有者/国家 SPXS/US

Most Searched